Back to catalog

STARLINK-1067

AliveCommunicationsVLEO
NORAD 44771·PAYLOAD·🇺🇸 United States

Launched Nov 11, 2019 from Cape Canaveral Space Force Station

Loading…

Next Passes (next 24 hours)

TLE

FreshSource: CelesTrak SupGP

Epoch: Sep 14, 2026, 12:00 UTC

1 44771C 19074BL  26257.50048611  .01222000  00000+0  66368-3 0  2576
2 44771  53.0283 338.3563 0010513 349.0396 128.8058 16.18824309    16

Track STARLINK-1067 in real time with AllMySat

Download on the App Store